18. Juni 2016

Flugvorbereitung

Wetterbriefing:

Unser Wetter in EDRY (alle Daten ohne Gewähr, keine Garantie für permanente Verfügbarkeit):

 

 

 

Aktuelles  METAR von Mannheim-City, EDFM:

METAR

EDFM 231620Z 22005KT 170V260 9999 FEW036 BKN069 19/12 Q1016

Wetterinformationen für Piloten:

DWD pc_met Flugwetter gebührenpflichtiges Selfbriefing
AEROWEB Frankreich Selfbriefing (Registrierung notwendig)
AustroControl Flugwetter kostenlose Basisinformationen
MeteoSchweiz Aviatik kostenlose Basisinformation
 Windy  Winddaten, Bewölkung, Niederschlag

NOTAMS / VFR Bulletin / Flugplan

AIS Portal Flugvorbereitungsportal der DFS Flugsicherung

Routenplanung, Karten und Flugplätze:

FL95 VFR Flugplanung
Autorouter IFR Routing
rocketroute Europaweites IFR/VFR Routing
www.airports.de Flughafen – Informationen für Deutschland und Österreich

Allgemeine Informationen für Piloten:

Flugplatz Speyer Informationen von unserem Heimatflugplatz